Tracking 31033 objects as of 14-Jul-2025
HD Live streaming from Space Station
objects crossing your sky now

BLOCK DM-SL R/B

Track BLOCK DM-SL R/B now!


NORAD ID: 38357
Int'l Code: 2012-030B
Perigee: 740.3 km
Apogee: 35,670.2 km
Inclination: 0.4 °
Period: 639.0 minutes
Semi major axis: 24576 km
RCS: 20.6934 m2 (large)
Launch date: June 1, 2012
Source: Sea Launch (SEAL)
Launch site: SEA LAUNCH (SEAL)

Note: This is a ROCKET BODY
Your satellite tracking list
Your tracking list is empty




NASA's NSSDC Master Catalog

Two Line Element Set (TLE):
1 38357U 12030B   25195.51955338 -.00000112  00000-0 -95293-3 0  9990
2 38357   0.4339 311.6360 7106428 319.4486  15.7449  2.25335075108023
Source of the keplerian elements: AFSPC